User: anonymous
Location: Bergen
(60.3910°N, 5.3250°E)
Time: 02:09:09
(UTC+02:00)
Language:

Cosmos 1943 - Orbit

View from above orbital plane
View from above orbital plane
View from above satellite
View from above satellite

Ground track
Ground track

The orbit data is extracted from the following two-line orbital elements,

1 19119U 88039A   14241.08367875  .00000287  00000-0  17317-3 0  2234
2 19119 071.0032 090.1027 0011221 183.8934 338.7168 14.14940549357369
Epoch (UTC): 29 August 2014 02:00:29
Eccentricity: 0.0011221
inclination: 71.0032°
perigee height: 834 km
apogee height: 850 km
right ascension of ascending node: 90.1027°
argument of perigee: 183.8934°
revolutions per day: 14.14940549
mean anomaly at epoch: 338.7168°
orbit number at epoch: 35736

The dashed part of the orbit path shows where the satellite is in the earth's shadow,  

DLR